TimeCDT,TemperatureF,Dew PointF,Humidity,Sea Level PressureIn,VisibilityMPH,Wind Direction,Wind SpeedMPH,Gust SpeedMPH,PrecipitationIn,Events,Conditions,WindDirDegrees,DateUTC
12:52 AM,64.0,52.0,65,29.99,10.0,South,5.8,-,N/A,,Clear,170,2012-10-04 05:52:00
1:52 AM,63.0,52.0,67,30.00,10.0,South,5.8,-,N/A,,Clear,180,2012-10-04 06:52:00
2:52 AM,61.0,52.0,72,30.02,10.0,Calm,Calm,-,N/A,,Clear,0,2012-10-04 07:52:00
3:52 AM,55.0,51.1,86,30.04,10.0,Calm,Calm,-,N/A,,Clear,0,2012-10-04 08:52:00
4:52 AM,54.0,51.1,90,30.06,10.0,Calm,Calm,-,N/A,,Clear,0,2012-10-04 09:52:00
5:52 AM,55.9,51.1,84,30.08,10.0,Calm,Calm,-,N/A,,Clear,0,2012-10-04 10:52:00
6:52 AM,57.9,52.0,81,30.09,10.0,Calm,Calm,-,N/A,,Clear,0,2012-10-04 11:52:00
7:52 AM,55.0,52.0,89,30.13,8.0,NW,3.5,-,N/A,,Clear,310,2012-10-04 12:52:00
8:52 AM,63.0,54.0,72,30.14,10.0,SSW,4.6,-,N/A,,Clear,210,2012-10-04 13:52:00
9:52 AM,69.1,55.0,61,30.14,10.0,South,9.2,17.3,N/A,,Clear,180,2012-10-04 14:52:00
10:52 AM,73.0,55.0,53,30.15,10.0,WSW,10.4,17.3,N/A,,Scattered Clouds,250,2012-10-04 15:52:00
11:52 AM,70.0,54.0,57,30.17,10.0,NW,11.5,-,N/A,,Mostly Cloudy,320,2012-10-04 16:52:00
12:52 PM,68.0,50.0,52,30.18,10.0,NNW,12.7,-,N/A,,Overcast,340,2012-10-04 17:52:00
1:52 PM,69.1,48.9,49,30.17,10.0,NNW,13.8,-,N/A,,Overcast,340,2012-10-04 18:52:00
2:52 PM,68.0,48.9,50,30.17,10.0,North,11.5,-,N/A,,Overcast,360,2012-10-04 19:52:00
3:52 PM,64.9,48.0,54,30.17,10.0,North,10.4,-,N/A,,Overcast,360,2012-10-04 20:52:00
5:52 PM,62.1,46.0,56,30.17,10.0,North,10.4,17.3,N/A,,Overcast,10,2012-10-04 22:52:00
6:52 PM,59.0,46.0,62,30.18,10.0,North,9.2,-,N/A,,Overcast,10,2012-10-04 23:52:00
7:52 PM,55.0,41.0,59,30.21,10.0,North,11.5,-,N/A,,Overcast,360,2012-10-05 00:52:00
10:52 PM,51.1,42.1,71,30.22,10.0,NNE,5.8,-,0.00,,Overcast,20,2012-10-05 03:52:00
11:52 PM,50.0,44.1,80,30.21,10.0,NNE,6.9,-,0.01,,Overcast,20,2012-10-05 04:52:00